Terminal Aerodrome Forecast
Issued by NWS

Home | Current Version | Previous Version | Text Only | Print | Product List | Glossary On
Versions: 1 2 3 4 5 6 7 8 9 10 11 12 13 14 15 16 17 18 19
000
FTUS45 KCYS 190500
TAFAIA
TAF
KAIA 190538Z 1906/2006 25008KT P6SM FEW100
     FM190700 33010KT P6SM SCT080
     FM191300 05008KT P6SM BKN100
     FM192000 14008KT P6SM SCT100=

USA.gov is the U.S. government's official web portal to all federal, state and local government web resources and services.